Regional Weather Roundup
Issued by NWS Nashville, TN

Home | Current Version | Previous Version | Text Only | Print | Product List | Glossary On
Versions: 1 2 3 4 5 6 7 8 9 10 11 12 13 14 15 16 17 18 19 20 21 22 23 24 25 26 27 28 29 30 31 32 33 34 35 36 37 38 39 40 41 42 43 44 45 46 47 48 49 50
000
ASUS44 KOHX 271815
RWROHX
MIDDLE TENNESSEE HOURLY WEATHER ROUNDUP
NATIONAL WEATHER SERVICE NASHVILLE TN
1200 PM CST THU NOV 27 2014

NOTE: "FAIR" INDICATES FEW OR NO CLOUDS BELOW 12,000 FEET WITH
NO SIGNIFICANT WEATHER AND/OR OBSTRUCTIONS TO VISIBILITY.

* THESE REPORTS ARE NOT UNDER NWS QUALITY CONTROL AND MAY NOT
  REPORT WEATHER SUCH AS PRECIPITATION AND FOG.


TNZ005>011-023>034-057-059-062>066-078-080-271900
...NORTHERN MIDDLE TENNESSEE...

CITY           SKY/WX    TMP DP  RH WIND       PRES   REMARKS
CLARKSVILLE    CLOUDY    35  26  69 N15       30.44S WCI  25
CROSSVILLE     CLOUDY    34  26  72 NW12G17   30.28S WCI  25
GALLATIN       CLOUDY    34  26  72 NW14      30.41S WCI  25
DICKSON        CLOUDY    34  27  75 NW12      30.40F WCI  25
LEBANON        CLOUDY    35  26  70 NW13      30.38R WCI  26
LIVINGSTON     CLOUDY    42  25  51 NW12      30.31R
NASHVILLE      CLOUDY    37  27  67 NW9       30.41S WCI  30
WEST NASHVILLE CLOUDY    36  25  64 N15       30.42S WCI  26
PORTLAND         N/A     30  23  74 NW14      30.39R WCI  20
SPARTA         CLOUDY    36  28  75 NW9       30.33R WCI  29
$$
TNZ056-058-060-061-075>077-079-093>097-271900
...SOUTHERN MIDDLE TENNESSEE...

CITY           SKY/WX    TMP DP  RH WIND       PRES   REMARKS
COLUMBIA       CLOUDY    39  30  70 NW10      30.38F WCI  32
LEWISBURG      CLOUDY    41  28  60 NW9       30.38F
MCMINNVILLE    CLOUDY    37  28  70 CALM      30.34S
MURFREESBORO   CLOUDY    38  28  67 NW12      30.39R WCI  30
SHELBYVILLE    CLOUDY    39  28  65 NW13      30.38F WCI  32
TULLAHOMA      CLOUDY    36  28  75 NW8       30.36S WCI  29
WINCHESTER     CLOUDY    36  28  75 NW7       30.36F WCI  30
$$


...KEY TO REMARKS...
VSB - VISIBILITY IN MILES
WCI - WIND CHILL INDEX
HX  - HEAT INDEX



USA.gov is the U.S. government's official web portal to all federal, state and local government web resources and services.